Location: Capvern
(43.1036°N, 0.3160°E)
Time: 03:53:31
(UTC+00:00)

Cosmos 1470 - Pass Details

Date: 16 October 2021
Orbit: 519 x 542 km, 82.5° (Epoch: 02 December)

Event Time Altitude Azimuth Distance (km) Brightness Sun altitude
Rises 17:52:19 0° 198° (SSW) 2,688 6.7 -7.7°
Reaches altitude 10° 17:54:30 10° 203° (SSW) 1,802 5.9 -8.1°
Maximum altitude 17:58:23 52° 281° (W) 681 3.8 -8.8°
Drops below altitude 10° 18:02:17 10° 358° (N) 1,816 5.5 -9.5°
Sets 18:04:30 0° 4° (N) 2,712 6.3 -9.9°
